TimeAKDT,TemperatureF,Dew PointF,Humidity,Sea Level PressureIn,VisibilityMPH,Wind Direction,Wind SpeedMPH,Gust SpeedMPH,PrecipitationIn,Events,Conditions,WindDirDegrees,DateUTC
12:53 AM,54.0,50.0,86,29.68,10.0,SE,12.7,19.6,0.01,,Overcast,140,2013-08-23 08:53:00
1:53 AM,55.0,50.0,83,29.67,10.0,SSE,12.7,20.7,N/A,,Overcast,160,2013-08-23 09:53:00
2:53 AM,54.0,50.0,86,29.66,5.0,SSE,12.7,19.6,0.01,Rain,Light Rain,150,2013-08-23 10:53:00
3:53 AM,54.0,50.0,86,29.64,10.0,SSE,11.5,20.7,0.01,,Overcast,160,2013-08-23 11:53:00
4:53 AM,54.0,50.0,86,29.63,10.0,SSE,12.7,-,N/A,,Overcast,150,2013-08-23 12:53:00
5:53 AM,55.0,48.9,80,29.62,10.0,SSE,8.1,-,0.00,,Light Drizzle,150,2013-08-23 13:53:00
6:53 AM,54.0,50.0,86,29.63,3.0,SE,5.8,-,0.01,Rain,Light Rain,140,2013-08-23 14:53:00
6:58 AM,53.6,50.0,88,29.62,2.0,SSE,8.1,-,0.00,Rain,Light Rain,160,2013-08-23 14:58:00
7:51 AM,53.6,51.8,94,29.61,2.0,SE,6.9,-,0.01,Rain,Light Rain,140,2013-08-23 15:51:00
7:53 AM,54.0,51.1,90,29.62,2.0,SE,5.8,-,0.01,Rain,Light Rain,140,2013-08-23 15:53:00
7:56 AM,53.6,51.8,94,29.61,3.0,SE,6.9,-,0.00,,Light Drizzle,140,2013-08-23 15:56:00
8:53 AM,54.0,51.1,90,29.61,3.0,SE,8.1,-,0.01,,Light Drizzle,140,2013-08-23 16:53:00
9:53 AM,55.0,52.0,89,29.61,5.0,SE,5.8,-,0.01,,Light Drizzle,140,2013-08-23 17:53:00
10:26 AM,57.2,51.8,82,29.60,7.0,SE,3.5,-,0.00,,Mostly Cloudy,140,2013-08-23 18:26:00
10:53 AM,57.0,52.0,83,29.60,10.0,SSE,6.9,-,0.00,,Mostly Cloudy,150,2013-08-23 18:53:00
11:53 AM,60.1,52.0,75,29.60,10.0,SSE,6.9,-,N/A,,Mostly Cloudy,160,2013-08-23 19:53:00
12:31 PM,60.8,51.8,72,29.59,10.0,SSW,5.8,-,N/A,,Scattered Clouds,200,2013-08-23 20:31:00
12:53 PM,61.0,52.0,72,29.59,10.0,West,3.5,-,N/A,,Scattered Clouds,260,2013-08-23 20:53:00
1:53 PM,62.1,52.0,70,29.58,10.0,SSW,3.5,-,N/A,,Scattered Clouds,200,2013-08-23 21:53:00
2:53 PM,62.1,54.0,75,29.57,10.0,WNW,6.9,-,N/A,,Scattered Clouds,300,2013-08-23 22:53:00
3:53 PM,64.0,53.1,67,29.57,10.0,NW,5.8,-,N/A,,Scattered Clouds,310,2013-08-23 23:53:00
4:53 PM,64.0,52.0,65,29.55,10.0,NW,5.8,-,N/A,,Mostly Cloudy,310,2013-08-24 00:53:00
5:53 PM,64.0,51.1,63,29.54,10.0,NW,4.6,-,N/A,,Mostly Cloudy,320,2013-08-24 01:53:00
6:53 PM,64.0,51.1,63,29.53,10.0,NNW,4.6,-,N/A,,Mostly Cloudy,340,2013-08-24 02:53:00
7:53 PM,64.0,48.9,58,29.53,10.0,WNW,4.6,-,N/A,,Mostly Cloudy,300,2013-08-24 03:53:00
8:53 PM,59.0,51.1,75,29.54,10.0,WNW,8.1,-,N/A,,Mostly Cloudy,290,2013-08-24 04:53:00
9:53 PM,59.0,52.0,78,29.55,10.0,Calm,Calm,-,0.00,Rain,Light Rain,0,2013-08-24 05:53:00
10:53 PM,57.0,53.1,87,29.55,10.0,Calm,Calm,-,0.00,Rain,Light Rain,0,2013-08-24 06:53:00
11:53 PM,55.9,52.0,87,29.56,10.0,Calm,Calm,-,0.00,,Mostly Cloudy,0,2013-08-24 07:53:00